Year,Month,Day,Hour,Minute,Value (Times are PST for barometer in hPa)
2022,12,27,00,00,970.17
2022,12,27,00,01,970.27
2022,12,27,00,02,970.27
2022,12,27,00,03,970.20
2022,12,27,00,04,970.13
2022,12,27,00,05,970.17
2022,12,27,00,06,970.27
2022,12,27,00,07,970.34
2022,12,27,00,08,970.37
2022,12,27,00,09,970.20
2022,12,27,00,10,970.10
2022,12,27,00,11,970.13
2022,12,27,00,12,970.17
2022,12,27,00,13,970.00
2022,12,27,00,14,969.90
2022,12,27,00,15,969.93
2022,12,27,00,16,970.10
2022,12,27,00,17,970.13
2022,12,27,00,18,970.10
2022,12,27,00,19,970.13
2022,12,27,00,20,970.17
2022,12,27,00,21,970.08
2022,12,27,00,22,969.93
2022,12,27,00,23,969.83
2022,12,27,00,24,969.90
2022,12,27,00,25,970.03
2022,12,27,00,26,970.03
2022,12,27,00,27,969.79
2022,12,27,00,28,969.69
2022,12,27,00,29,969.76
2022,12,27,00,30,969.86
2022,12,27,00,31,970.03
2022,12,27,00,32,969.96
2022,12,27,00,33,969.96
2022,12,27,00,34,969.93
2022,12,27,00,35,969.93
2022,12,27,00,36,969.93
2022,12,27,00,37,969.93
2022,12,27,00,38,969.86
2022,12,27,00,39,969.73
2022,12,27,00,40,969.49
2022,12,27,00,41,969.35
2022,12,27,00,42,969.35
2022,12,27,00,43,969.39
2022,12,27,00,44,969.46
2022,12,27,00,45,969.56
2022,12,27,00,46,969.63
2022,12,27,00,47,969.66
2022,12,27,00,48,969.56
2022,12,27,00,49,969.49
2022,12,27,00,50,969.46
2022,12,27,00,51,969.35
2022,12,27,00,52,969.18
2022,12,27,00,53,969.15
2022,12,27,00,54,969.15
2022,12,27,00,55,969.15
2022,12,27,00,56,969.08
2022,12,27,00,57,969.02
2022,12,27,00,58,968.98
2022,12,27,00,59,969.02
2022,12,27,01,00,968.98
2022,12,27,01,01,969.02
2022,12,27,01,02,969.02
2022,12,27,01,03,969.05
2022,12,27,01,04,968.98
2022,12,27,01,05,968.95
2022,12,27,01,06,968.85
2022,12,27,01,07,968.85
2022,12,27,01,08,968.88
2022,12,27,01,09,968.85
2022,12,27,01,10,968.88
2022,12,27,01,11,968.88
2022,12,27,01,12,968.85
2022,12,27,01,13,968.85
2022,12,27,01,14,968.78
2022,12,27,01,15,968.78
2022,12,27,01,16,968.78
2022,12,27,01,17,968.64
2022,12,27,01,18,968.54
2022,12,27,01,19,968.47
2022,12,27,01,20,968.54
2022,12,27,01,21,968.58
2022,12,27,01,22,968.68
2022,12,27,01,23,968.74
2022,12,27,01,24,968.74
2022,12,27,01,25,968.71
2022,12,27,01,26,968.61
2022,12,27,01,27,968.58
2022,12,27,01,28,968.54
2022,12,27,01,29,968.54
2022,12,27,01,30,968.51
2022,12,27,01,31,968.51
2022,12,27,01,32,968.44
2022,12,27,01,33,968.41
2022,12,27,01,34,968.41
2022,12,27,01,35,968.47
2022,12,27,01,36,968.44
2022,12,27,01,37,968.44
2022,12,27,01,38,968.44
2022,12,27,01,39,968.44
2022,12,27,01,40,968.34
2022,12,27,01,41,968.34
2022,12,27,01,42,968.37
2022,12,27,01,43,968.37
2022,12,27,01,44,968.41
2022,12,27,01,45,968.41
2022,12,27,01,46,968.37
2022,12,27,01,47,968.37
2022,12,27,01,48,968.30
2022,12,27,01,49,968.27
2022,12,27,01,50,968.27
2022,12,27,01,51,968.24
2022,12,27,01,52,968.24
2022,12,27,01,53,968.20
2022,12,27,01,54,968.24
2022,12,27,01,55,968.27
2022,12,27,01,56,968.20
2022,12,27,01,57,968.14
2022,12,27,01,58,968.03
2022,12,27,01,59,967.86
2022,12,27,02,00,967.83
2022,12,27,02,01,967.86
2022,12,27,02,02,967.86
2022,12,27,02,03,967.80
2022,12,27,02,04,967.73
2022,12,27,02,05,967.69
2022,12,27,02,06,967.66
2022,12,27,02,07,967.66
2022,12,27,02,08,967.66
2022,12,27,02,09,967.66
2022,12,27,02,10,967.63
2022,12,27,02,11,967.59
2022,12,27,02,12,967.49
2022,12,27,02,13,967.46
2022,12,27,02,14,967.36
2022,12,27,02,15,967.32
2022,12,27,02,16,967.32
2022,12,27,02,17,967.39
2022,12,27,02,18,967.49
2022,12,27,02,19,967.53
2022,12,27,02,20,967.46
2022,12,27,02,21,967.36
2022,12,27,02,22,967.32
2022,12,27,02,23,967.36
2022,12,27,02,24,967.42
2022,12,27,02,25,967.46
2022,12,27,02,26,967.46
2022,12,27,02,27,967.39
2022,12,27,02,28,967.32
2022,12,27,02,29,967.29
2022,12,27,02,30,967.29
2022,12,27,02,31,967.36
2022,12,27,02,32,967.39
2022,12,27,02,33,967.39
2022,12,27,02,34,967.36
2022,12,27,02,35,967.36
2022,12,27,02,36,967.36
2022,12,27,02,37,967.39
2022,12,27,02,38,967.39
2022,12,27,02,39,967.32
2022,12,27,02,40,967.36
2022,12,27,02,41,967.39
2022,12,27,02,42,967.39
2022,12,27,02,43,967.42
2022,12,27,02,44,967.39
2022,12,27,02,45,967.36
2022,12,27,02,46,967.32
2022,12,27,02,47,967.22
2022,12,27,02,48,967.15
2022,12,27,02,49,967.15
2022,12,27,02,50,967.05
2022,12,27,02,51,966.98
2022,12,27,02,52,966.95
2022,12,27,02,53,966.85
2022,12,27,02,54,966.81
2022,12,27,02,55,966.85
2022,12,27,02,56,966.81
2022,12,27,02,57,966.75
2022,12,27,02,58,966.75
2022,12,27,02,59,966.61
2022,12,27,03,00,966.58
2022,12,27,03,01,966.48
2022,12,27,03,02,966.44
2022,12,27,03,03,966.41
2022,12,27,03,04,966.41
2022,12,27,03,05,966.37
2022,12,27,03,06,966.37
2022,12,27,03,07,966.37
2022,12,27,03,08,966.34
2022,12,27,03,09,966.31
2022,12,27,03,10,966.37
2022,12,27,03,11,966.37
2022,12,27,03,12,966.37
2022,12,27,03,13,966.37
2022,12,27,03,14,966.34
2022,12,27,03,15,966.31
2022,12,27,03,16,966.31
2022,12,27,03,17,966.27
2022,12,27,03,18,966.24
2022,12,27,03,19,966.17
2022,12,27,03,20,966.14
2022,12,27,03,21,966.17
2022,12,27,03,22,966.20
2022,12,27,03,23,966.17
2022,12,27,03,24,966.07
2022,12,27,03,25,966.04
2022,12,27,03,26,966.07
2022,12,27,03,27,966.00
2022,12,27,03,28,966.04
2022,12,27,03,29,966.00
2022,12,27,03,30,965.87
2022,12,27,03,31,965.80
2022,12,27,03,32,965.83
2022,12,27,03,33,965.83
2022,12,27,03,34,965.76
2022,12,27,03,35,965.73
2022,12,27,03,36,965.60
2022,12,27,03,37,965.63
2022,12,27,03,38,965.53
2022,12,27,03,39,965.63
2022,12,27,03,40,965.76
2022,12,27,03,41,965.83
2022,12,27,03,42,965.76
2022,12,27,03,43,965.70
2022,12,27,03,44,965.70
2022,12,27,03,45,965.63
2022,12,27,03,46,965.66
2022,12,27,03,47,965.70
2022,12,27,03,48,965.66
2022,12,27,03,49,965.70
2022,12,27,03,50,965.70
2022,12,27,03,51,965.70
2022,12,27,03,52,965.73
2022,12,27,03,53,965.76
2022,12,27,03,54,965.80
2022,12,27,03,55,965.76
2022,12,27,03,56,965.80
2022,12,27,03,57,965.83
2022,12,27,03,58,965.80
2022,12,27,03,59,965.73
2022,12,27,04,00,965.63
2022,12,27,04,01,965.63
2022,12,27,04,02,965.53
2022,12,27,04,03,965.56
2022,12,27,04,04,965.53
2022,12,27,04,05,965.49
2022,12,27,04,06,965.43
2022,12,27,04,07,965.46
2022,12,27,04,08,965.49
2022,12,27,04,09,965.49
2022,12,27,04,10,965.43
2022,12,27,04,11,965.43
2022,12,27,04,12,965.46
2022,12,27,04,13,965.46
2022,12,27,04,14,965.39
2022,12,27,04,15,965.36
2022,12,27,04,16,965.36
2022,12,27,04,17,965.36
2022,12,27,04,18,965.26
2022,12,27,04,19,965.12
2022,12,27,04,20,965.12
2022,12,27,04,21,965.12
2022,12,27,04,22,965.09
2022,12,27,04,23,965.02
2022,12,27,04,24,964.99
2022,12,27,04,25,965.02
2022,12,27,04,26,965.05
2022,12,27,04,27,964.99
2022,12,27,04,28,964.85
2022,12,27,04,29,964.82
2022,12,27,04,30,964.75
2022,12,27,04,31,964.75
2022,12,27,04,32,964.75
2022,12,27,04,33,964.75
2022,12,27,04,34,964.71
2022,12,27,04,35,964.75
2022,12,27,04,36,964.65
2022,12,27,04,37,964.58
2022,12,27,04,38,964.61
2022,12,27,04,39,964.68
2022,12,27,04,40,964.71
2022,12,27,04,41,964.68
2022,12,27,04,42,964.65
2022,12,27,04,43,964.65
2022,12,27,04,44,964.68
2022,12,27,04,45,964.68
2022,12,27,04,46,964.61
2022,12,27,04,47,964.55
2022,12,27,04,48,964.55
2022,12,27,04,49,964.55
2022,12,27,04,50,964.44
2022,12,27,04,51,964.34
2022,12,27,04,52,964.27
2022,12,27,04,53,964.27
2022,12,27,04,54,964.27
2022,12,27,04,55,964.24
2022,12,27,04,56,964.24
2022,12,27,04,57,964.24
2022,12,27,04,58,964.31
2022,12,27,04,59,964.38
2022,12,27,05,00,964.41
2022,12,27,05,01,964.41
2022,12,27,05,02,964.44
2022,12,27,05,03,964.41
2022,12,27,05,04,964.34
2022,12,27,05,05,964.44
2022,12,27,05,06,964.44
2022,12,27,05,07,964.38
2022,12,27,05,08,964.31
2022,12,27,05,09,964.21
2022,12,27,05,10,964.11
2022,12,27,05,11,964.07
2022,12,27,05,12,964.04
2022,12,27,05,13,964.00
2022,12,27,05,14,964.04
2022,12,27,05,15,964.00
2022,12,27,05,16,963.94
2022,12,27,05,17,963.94
2022,12,27,05,18,963.94
2022,12,27,05,19,963.97
2022,12,27,05,20,964.00
2022,12,27,05,21,964.04
2022,12,27,05,22,964.00
2022,12,27,05,23,964.07
2022,12,27,05,24,964.04
2022,12,27,05,25,964.04
2022,12,27,05,26,964.00
2022,12,27,05,27,963.97
2022,12,27,05,28,963.87
2022,12,27,05,29,963.77
2022,12,27,05,30,963.80
2022,12,27,05,31,963.73
2022,12,27,05,32,963.70
2022,12,27,05,33,963.67
2022,12,27,05,34,963.60
2022,12,27,05,35,963.60
2022,12,27,05,36,963.56
2022,12,27,05,37,963.55
2022,12,27,05,38,963.46
2022,12,27,05,39,963.39
2022,12,27,05,40,963.36
2022,12,27,05,41,963.29
2022,12,27,05,42,963.33
2022,12,27,05,43,963.33
2022,12,27,05,44,963.19
2022,12,27,05,45,963.12
2022,12,27,05,46,963.02
2022,12,27,05,47,962.92
2022,12,27,05,48,962.92
2022,12,27,05,49,962.89
2022,12,27,05,50,962.95
2022,12,27,05,51,962.95
2022,12,27,05,52,962.95
2022,12,27,05,53,962.99
2022,12,27,05,54,963.12
2022,12,27,05,55,963.29
2022,12,27,05,56,963.33
2022,12,27,05,57,963.39
2022,12,27,05,58,963.50
2022,12,27,05,59,963.53
2022,12,27,06,00,963.56
2022,12,27,06,01,963.56
2022,12,27,06,02,963.50
2022,12,27,06,03,963.46
2022,12,27,06,04,963.50
2022,12,27,06,05,963.50
2022,12,27,06,06,963.50
2022,12,27,06,07,963.43
2022,12,27,06,08,963.36
2022,12,27,06,09,963.26
2022,12,27,06,10,963.22
2022,12,27,06,11,963.19
2022,12,27,06,12,963.16
2022,12,27,06,13,963.12
2022,12,27,06,14,963.09
2022,12,27,06,15,963.06
2022,12,27,06,16,963.09
2022,12,27,06,17,963.02
2022,12,27,06,18,963.02
2022,12,27,06,19,963.02
2022,12,27,06,20,963.09
2022,12,27,06,21,963.16
2022,12,27,06,22,963.26
2022,12,27,06,23,963.29
2022,12,27,06,24,963.33
2022,12,27,06,25,963.33
2022,12,27,06,26,963.36
2022,12,27,06,27,963.36
2022,12,27,06,28,963.39
2022,12,27,06,29,963.43
2022,12,27,06,30,963.36
2022,12,27,06,31,963.33
2022,12,27,06,32,963.29
2022,12,27,06,33,963.26
2022,12,27,06,34,963.22
2022,12,27,06,35,963.26
2022,12,27,06,36,963.26
2022,12,27,06,37,963.26
2022,12,27,06,38,963.26
2022,12,27,06,39,963.26
2022,12,27,06,40,963.22
2022,12,27,06,41,963.22
2022,12,27,06,42,963.19
2022,12,27,06,43,963.19
2022,12,27,06,44,963.22
2022,12,27,06,45,963.22
2022,12,27,06,46,963.26
2022,12,27,06,47,963.26
2022,12,27,06,48,963.26
2022,12,27,06,49,963.26
2022,12,27,06,50,963.33
2022,12,27,06,51,963.33
2022,12,27,06,52,963.36
2022,12,27,06,53,963.36
2022,12,27,06,54,963.43
2022,12,27,06,55,963.43
2022,12,27,06,56,963.46
2022,12,27,06,57,963.53
2022,12,27,06,58,963.50
2022,12,27,06,59,963.46
2022,12,27,07,00,963.46
2022,12,27,07,01,963.43
2022,12,27,07,02,963.43
2022,12,27,07,03,963.43
2022,12,27,07,04,963.39
2022,12,27,07,05,963.39
2022,12,27,07,06,963.43
2022,12,27,07,07,963.46
2022,12,27,07,08,963.46
2022,12,27,07,09,963.39
2022,12,27,07,10,963.43
2022,12,27,07,11,963.36
2022,12,27,07,12,963.33
2022,12,27,07,13,963.36
2022,12,27,07,14,963.36
2022,12,27,07,15,963.36
2022,12,27,07,16,963.36
2022,12,27,07,17,963.33
2022,12,27,07,18,963.29
2022,12,27,07,19,963.33
2022,12,27,07,20,963.26
2022,12,27,07,21,963.19
2022,12,27,07,22,963.19
2022,12,27,07,23,963.12
2022,12,27,07,24,963.19
2022,12,27,07,25,963.19
2022,12,27,07,26,963.16
2022,12,27,07,27,963.09
2022,12,27,07,28,963.02
2022,12,27,07,29,963.06
2022,12,27,07,30,963.06
2022,12,27,07,31,963.09
2022,12,27,07,32,962.99
2022,12,27,07,33,962.99
2022,12,27,07,34,962.99
2022,12,27,07,35,962.99
2022,12,27,07,36,962.95
2022,12,27,07,37,962.99
2022,12,27,07,38,962.99
2022,12,27,07,39,963.06
2022,12,27,07,40,962.99
2022,12,27,07,41,963.02
2022,12,27,07,42,963.02
2022,12,27,07,43,962.99
2022,12,27,07,44,962.95
2022,12,27,07,45,962.95
2022,12,27,07,46,962.92
2022,12,27,07,47,962.89
2022,12,27,07,48,962.85
2022,12,27,07,49,962.85
2022,12,27,07,50,962.82
2022,12,27,07,51,962.78
2022,12,27,07,52,962.82
2022,12,27,07,53,962.82
2022,12,27,07,54,962.89
2022,12,27,07,55,962.85
2022,12,27,07,56,962.89
2022,12,27,07,57,962.85
2022,12,27,07,58,962.78
2022,12,27,07,59,962.82
2022,12,27,08,00,962.75
2022,12,27,08,01,962.75
2022,12,27,08,02,962.72
2022,12,27,08,03,962.75
2022,12,27,08,04,962.75
2022,12,27,08,05,962.78
2022,12,27,08,06,962.82
2022,12,27,08,07,962.85
2022,12,27,08,08,962.89
2022,12,27,08,09,962.89
2022,12,27,08,10,962.89
2022,12,27,08,11,962.89
2022,12,27,08,12,962.89
2022,12,27,08,13,962.85
2022,12,27,08,14,962.82
2022,12,27,08,15,962.85
2022,12,27,08,16,962.92
2022,12,27,08,17,962.95
2022,12,27,08,18,962.99
2022,12,27,08,19,962.99
2022,12,27,08,20,962.99
2022,12,27,08,21,962.95
2022,12,27,08,22,962.99
2022,12,27,08,23,962.99
2022,12,27,08,24,963.02
2022,12,27,08,25,963.02
2022,12,27,08,26,963.06
2022,12,27,08,27,963.02
2022,12,27,08,28,963.06
2022,12,27,08,29,963.02
2022,12,27,08,30,963.02
2022,12,27,08,31,963.02
2022,12,27,08,32,963.06
2022,12,27,08,33,963.06
2022,12,27,08,34,963.06
2022,12,27,08,35,963.09
2022,12,27,08,36,963.12
2022,12,27,08,37,963.16
2022,12,27,08,38,963.19
2022,12,27,08,39,963.22
2022,12,27,08,40,963.22
2022,12,27,08,41,963.29
2022,12,27,08,42,963.36
2022,12,27,08,43,963.43
2022,12,27,08,44,963.53
2022,12,27,08,45,963.67
2022,12,27,08,46,963.73
2022,12,27,08,47,963.73
2022,12,27,08,48,963.70
2022,12,27,08,49,963.70
2022,12,27,08,50,963.73
2022,12,27,08,51,963.73
2022,12,27,08,52,963.73
2022,12,27,08,53,963.73
2022,12,27,08,54,963.70
2022,12,27,08,55,963.70
2022,12,27,08,56,963.73
2022,12,27,08,57,963.77
2022,12,27,08,58,963.87
2022,12,27,08,59,963.83
2022,12,27,09,00,963.94
2022,12,27,09,01,963.94
2022,12,27,09,02,963.94
2022,12,27,09,03,963.94
2022,12,27,09,04,963.97
2022,12,27,09,05,964.04
2022,12,27,09,06,964.07
2022,12,27,09,07,964.07
2022,12,27,09,08,964.11
2022,12,27,09,09,964.11
2022,12,27,09,10,964.11
2022,12,27,09,11,964.17
2022,12,27,09,12,964.17
2022,12,27,09,13,964.17
2022,12,27,09,14,964.24
2022,12,27,09,15,964.27
2022,12,27,09,16,964.27
2022,12,27,09,17,964.24
2022,12,27,09,18,964.27
2022,12,27,09,19,964.27
2022,12,27,09,20,964.27
2022,12,27,09,21,964.27
2022,12,27,09,22,964.21
2022,12,27,09,23,964.34
2022,12,27,09,24,964.34
2022,12,27,09,25,964.41
2022,12,27,09,26,964.44
2022,12,27,09,27,964.44
2022,12,27,09,28,964.44
2022,12,27,09,29,964.44
2022,12,27,09,30,964.44
2022,12,27,09,31,964.51
2022,12,27,09,32,964.51
2022,12,27,09,33,964.55
2022,12,27,09,34,964.51
2022,12,27,09,35,964.51
2022,12,27,09,36,964.55
2022,12,27,09,37,964.51
2022,12,27,09,38,964.51
2022,12,27,09,39,964.48
2022,12,27,09,40,964.48
2022,12,27,09,41,964.44
2022,12,27,09,42,964.44
2022,12,27,09,43,964.48
2022,12,27,09,44,964.48
2022,12,27,09,45,964.51
2022,12,27,09,46,964.51
2022,12,27,09,47,964.58
2022,12,27,09,48,964.58
2022,12,27,09,49,964.61
2022,12,27,09,50,964.58
2022,12,27,09,51,964.58
2022,12,27,09,52,964.61
2022,12,27,09,53,964.65
2022,12,27,09,54,964.68
2022,12,27,09,55,964.65
2022,12,27,09,56,964.65
2022,12,27,09,57,964.68
2022,12,27,09,58,964.68
2022,12,27,09,59,964.75
2022,12,27,10,00,964.75
2022,12,27,10,01,964.75
2022,12,27,10,02,964.78
2022,12,27,10,03,964.82
2022,12,27,10,04,964.85
2022,12,27,10,05,964.85
2022,12,27,10,06,964.88
2022,12,27,10,07,964.88
2022,12,27,10,08,964.88
2022,12,27,10,09,964.92
2022,12,27,10,10,964.95
2022,12,27,10,11,964.92
2022,12,27,10,12,964.92
2022,12,27,10,13,964.92
2022,12,27,10,14,964.95
2022,12,27,10,15,964.99
2022,12,27,10,16,964.92
2022,12,27,10,17,964.99
2022,12,27,10,18,965.02
2022,12,27,10,19,965.02
2022,12,27,10,20,964.99
2022,12,27,10,21,965.02
2022,12,27,10,22,965.05
2022,12,27,10,23,965.09
2022,12,27,10,24,965.09
2022,12,27,10,25,965.05
2022,12,27,10,26,965.12
2022,12,27,10,27,965.16
2022,12,27,10,28,965.16
2022,12,27,10,29,965.22
2022,12,27,10,30,965.22
2022,12,27,10,31,965.26
2022,12,27,10,32,965.29
2022,12,27,10,33,965.26
2022,12,27,10,34,965.29
2022,12,27,10,35,965.29
2022,12,27,10,36,965.32
2022,12,27,10,37,965.29
2022,12,27,10,38,965.29
2022,12,27,10,39,965.32
2022,12,27,10,40,965.36
2022,12,27,10,41,965.36
2022,12,27,10,42,965.39
2022,12,27,10,43,965.39
2022,12,27,10,44,965.39
2022,12,27,10,45,965.43
2022,12,27,10,46,965.39
2022,12,27,10,47,965.39
2022,12,27,10,48,965.39
2022,12,27,10,49,965.39
2022,12,27,10,50,965.43
2022,12,27,10,51,965.39
2022,12,27,10,52,965.36
2022,12,27,10,53,965.39
2022,12,27,10,54,965.46
2022,12,27,10,55,965.46
2022,12,27,10,56,965.43
2022,12,27,10,57,965.39
2022,12,27,10,58,965.36
2022,12,27,10,59,965.26
2022,12,27,11,00,965.32
2022,12,27,11,01,965.39
2022,12,27,11,02,965.43
2022,12,27,11,03,965.49
2022,12,27,11,04,965.46
2022,12,27,11,05,965.43
2022,12,27,11,06,965.39
2022,12,27,11,07,965.39
2022,12,27,11,08,965.43
2022,12,27,11,09,965.43
2022,12,27,11,10,965.43
2022,12,27,11,11,965.39
2022,12,27,11,12,965.43
2022,12,27,11,13,965.49
2022,12,27,11,14,965.49
2022,12,27,11,15,965.53
2022,12,27,11,16,965.49
2022,12,27,11,17,965.49
2022,12,27,11,18,965.53
2022,12,27,11,19,965.53
2022,12,27,11,20,965.56
2022,12,27,11,21,965.60
2022,12,27,11,22,965.60
2022,12,27,11,23,965.60
2022,12,27,11,24,965.60
2022,12,27,11,25,965.60
2022,12,27,11,26,965.63
2022,12,27,11,27,965.63
2022,12,27,11,28,965.63
2022,12,27,11,29,965.63
2022,12,27,11,30,965.60
2022,12,27,11,31,965.66
2022,12,27,11,32,965.60
2022,12,27,11,33,965.63
2022,12,27,11,34,965.66
2022,12,27,11,35,965.70
2022,12,27,11,36,965.73
2022,12,27,11,37,965.76
2022,12,27,11,38,965.80
2022,12,27,11,39,965.76
2022,12,27,11,40,965.76
2022,12,27,11,41,965.76
2022,12,27,11,42,965.80
2022,12,27,11,43,965.83
2022,12,27,11,44,965.83
2022,12,27,11,45,965.83
2022,12,27,11,46,965.87
2022,12,27,11,47,965.90
2022,12,27,11,48,965.87
2022,12,27,11,49,965.90
2022,12,27,11,50,965.87
2022,12,27,11,51,965.87
2022,12,27,11,52,965.90
2022,12,27,11,53,965.87
2022,12,27,11,54,965.93
2022,12,27,11,55,965.93
2022,12,27,11,56,965.93
2022,12,27,11,57,965.90
2022,12,27,11,58,965.90
2022,12,27,11,59,965.90
2022,12,27,12,00,965.90
2022,12,27,12,01,965.90
2022,12,27,12,02,965.93
2022,12,27,12,03,965.93
2022,12,27,12,04,966.00
2022,12,27,12,05,966.04
2022,12,27,12,06,966.04
2022,12,27,12,07,966.07
2022,12,27,12,08,966.07
2022,12,27,12,09,966.14
2022,12,27,12,10,966.17
2022,12,27,12,11,966.17
2022,12,27,12,12,966.20
2022,12,27,12,13,966.24
2022,12,27,12,14,966.27
2022,12,27,12,15,966.27
2022,12,27,12,16,966.31
2022,12,27,12,17,966.37
2022,12,27,12,18,966.41
2022,12,27,12,19,966.44
2022,12,27,12,20,966.44
2022,12,27,12,21,966.41
2022,12,27,12,22,966.44
2022,12,27,12,23,966.44
2022,12,27,12,24,966.44
2022,12,27,12,25,966.48
2022,12,27,12,26,966.48
2022,12,27,12,27,966.44
2022,12,27,12,28,966.48
2022,12,27,12,29,966.51
2022,12,27,12,30,966.54
2022,12,27,12,31,966.54
2022,12,27,12,32,966.58
2022,12,27,12,33,966.54
2022,12,27,12,34,966.61
2022,12,27,12,35,966.61
2022,12,27,12,36,966.68
2022,12,27,12,37,966.65
2022,12,27,12,38,966.65
2022,12,27,12,39,966.68
2022,12,27,12,40,966.71
2022,12,27,12,41,966.71
2022,12,27,12,42,966.71
2022,12,27,12,43,966.75
2022,12,27,12,44,966.75
2022,12,27,12,45,966.78
2022,12,27,12,46,966.75
2022,12,27,12,47,966.75
2022,12,27,12,48,966.75
2022,12,27,12,49,966.78
2022,12,27,12,50,966.78
2022,12,27,12,51,966.78
2022,12,27,12,52,966.78
2022,12,27,12,53,966.81
2022,12,27,12,54,966.81
2022,12,27,12,55,966.85
2022,12,27,12,56,966.85
2022,12,27,12,57,966.85
2022,12,27,12,58,966.88
2022,12,27,12,59,966.85
2022,12,27,13,00,966.88
2022,12,27,13,01,966.88
2022,12,27,13,02,966.92
2022,12,27,13,03,966.89
2022,12,27,13,04,966.98
2022,12,27,13,05,966.98
2022,12,27,13,06,966.95
2022,12,27,13,07,967.02
2022,12,27,13,08,966.98
2022,12,27,13,09,967.02
2022,12,27,13,10,967.02
2022,12,27,13,11,967.05
2022,12,27,13,12,967.09
2022,12,27,13,13,967.02
2022,12,27,13,14,967.09
2022,12,27,13,15,967.09
2022,12,27,13,16,967.12
2022,12,27,13,17,967.15
2022,12,27,13,18,967.12
2022,12,27,13,19,967.15
2022,12,27,13,20,967.15
2022,12,27,13,21,967.19
2022,12,27,13,22,967.19
2022,12,27,13,23,967.22
2022,12,27,13,24,967.22
2022,12,27,13,25,967.22
2022,12,27,13,26,967.25
2022,12,27,13,27,967.29
2022,12,27,13,28,967.36
2022,12,27,13,29,967.36
2022,12,27,13,30,967.39
2022,12,27,13,31,967.42
2022,12,27,13,32,967.46
2022,12,27,13,33,967.42
2022,12,27,13,34,967.42
2022,12,27,13,35,967.46
2022,12,27,13,36,967.46
2022,12,27,13,37,967.46
2022,12,27,13,38,967.49
2022,12,27,13,39,967.53
2022,12,27,13,40,967.56
2022,12,27,13,41,967.63
2022,12,27,13,42,967.63
2022,12,27,13,43,967.63
2022,12,27,13,44,967.66
2022,12,27,13,45,967.66
2022,12,27,13,46,967.66
2022,12,27,13,47,967.73
2022,12,27,13,48,967.73
2022,12,27,13,49,967.76
2022,12,27,13,50,967.80
2022,12,27,13,51,967.80
2022,12,27,13,52,967.83
2022,12,27,13,53,967.80
2022,12,27,13,54,967.86
2022,12,27,13,55,967.90
2022,12,27,13,56,967.93
2022,12,27,13,57,968.00
2022,12,27,13,58,968.07
2022,12,27,13,59,968.10
2022,12,27,14,00,968.07
2022,12,27,14,01,968.14
2022,12,27,14,02,968.17
2022,12,27,14,03,968.14
2022,12,27,14,04,968.17
2022,12,27,14,05,968.20
2022,12,27,14,06,968.17
2022,12,27,14,07,968.24
2022,12,27,14,08,968.27
2022,12,27,14,09,968.30
2022,12,27,14,10,968.30
2022,12,27,14,11,968.30
2022,12,27,14,12,968.37
2022,12,27,14,13,968.44
2022,12,27,14,14,968.47
2022,12,27,14,15,968.54
2022,12,27,14,16,968.54
2022,12,27,14,17,968.58
2022,12,27,14,18,968.64
2022,12,27,14,19,968.71
2022,12,27,14,20,968.71
2022,12,27,14,21,968.81
2022,12,27,14,22,968.81
2022,12,27,14,23,968.91
2022,12,27,14,24,968.91
2022,12,27,14,25,968.95
2022,12,27,14,26,968.98
2022,12,27,14,27,969.02
2022,12,27,14,28,969.02
2022,12,27,14,29,969.05
2022,12,27,14,30,969.08
2022,12,27,14,31,969.15
2022,12,27,14,32,969.15
2022,12,27,14,33,969.18
2022,12,27,14,34,969.22
2022,12,27,14,35,969.25
2022,12,27,14,36,969.29
2022,12,27,14,37,969.35
2022,12,27,14,38,969.35
2022,12,27,14,39,969.35
2022,12,27,14,40,969.39
2022,12,27,14,41,969.42
2022,12,27,14,42,969.46
2022,12,27,14,43,969.49
2022,12,27,14,44,969.49
2022,12,27,14,45,969.56
2022,12,27,14,46,969.63
2022,12,27,14,47,969.63
2022,12,27,14,48,969.69
2022,12,27,14,49,969.69
2022,12,27,14,50,969.69
2022,12,27,14,51,969.73
2022,12,27,14,52,969.76
2022,12,27,14,53,969.76
2022,12,27,14,54,969.76
2022,12,27,14,55,969.79
2022,12,27,14,56,969.83
2022,12,27,14,57,969.86
2022,12,27,14,58,969.86
2022,12,27,14,59,969.93
2022,12,27,15,00,969.90
2022,12,27,15,01,969.90
2022,12,27,15,02,969.93
2022,12,27,15,03,969.96
2022,12,27,15,04,970.03
2022,12,27,15,05,970.03
2022,12,27,15,06,970.10
2022,12,27,15,07,970.13
2022,12,27,15,08,970.13
2022,12,27,15,09,970.13
2022,12,27,15,10,970.13
2022,12,27,15,11,970.17
2022,12,27,15,12,970.23
2022,12,27,15,13,970.23
2022,12,27,15,14,970.27
2022,12,27,15,15,970.34
2022,12,27,15,16,970.30
2022,12,27,15,17,970.37
2022,12,27,15,18,970.44
2022,12,27,15,19,970.44
2022,12,27,15,20,970.47
2022,12,27,15,21,970.54
2022,12,27,15,22,970.57
2022,12,27,15,23,970.57
2022,12,27,15,24,970.64
2022,12,27,15,25,970.67
2022,12,27,15,26,970.67
2022,12,27,15,27,970.71
2022,12,27,15,28,970.78
2022,12,27,15,29,970.81
2022,12,27,15,30,970.88
2022,12,27,15,31,970.88
2022,12,27,15,32,970.98
2022,12,27,15,33,970.98
2022,12,27,15,34,970.98
2022,12,27,15,35,970.98
2022,12,27,15,36,971.05
2022,12,27,15,37,971.12
2022,12,27,15,38,971.15
2022,12,27,15,39,971.15
2022,12,27,15,40,971.22
2022,12,27,15,41,971.25
2022,12,27,15,42,971.25
2022,12,27,15,43,971.28
2022,12,27,15,44,971.28
2022,12,27,15,45,971.32
2022,12,27,15,46,971.35
2022,12,27,15,47,971.42
2022,12,27,15,48,971.49
2022,12,27,15,49,971.56
2022,12,27,15,50,971.59
2022,12,27,15,51,971.62
2022,12,27,15,52,971.66
2022,12,27,15,53,971.69
2022,12,27,15,54,971.72
2022,12,27,15,55,971.69
2022,12,27,15,56,971.72
2022,12,27,15,57,971.76
2022,12,27,15,58,971.79
2022,12,27,15,59,971.89
2022,12,27,16,00,971.96
2022,12,27,16,01,971.96
2022,12,27,16,02,972.00
2022,12,27,16,03,972.03
2022,12,27,16,04,972.00
2022,12,27,16,05,972.03
2022,12,27,16,06,972.06
2022,12,27,16,07,972.06
2022,12,27,16,08,972.10
2022,12,27,16,09,972.16
2022,12,27,16,10,972.10
2022,12,27,16,11,972.20
2022,12,27,16,12,972.20
2022,12,27,16,13,972.27
2022,12,27,16,14,972.30
2022,12,27,16,15,972.27
2022,12,27,16,16,972.30
2022,12,27,16,17,972.33
2022,12,27,16,18,972.33
2022,12,27,16,19,972.37
2022,12,27,16,20,972.37
2022,12,27,16,21,972.37
2022,12,27,16,22,972.44
2022,12,27,16,23,972.44
2022,12,27,16,24,972.50
2022,12,27,16,25,972.54
2022,12,27,16,26,972.47
2022,12,27,16,27,972.47
2022,12,27,16,28,972.54
2022,12,27,16,29,972.57
2022,12,27,16,30,972.57
2022,12,27,16,31,972.54
2022,12,27,16,32,972.67
2022,12,27,16,33,972.64
2022,12,27,16,34,972.71
2022,12,27,16,35,972.71
2022,12,27,16,36,972.74